Volver al catálogo

COSMOS 1823 DEB

ActivoLEO
NORAD 39818·DEBRIS·🇷🇺 Russia

Lanzado Feb 20, 1987 desde Plesetsk Cosmodrome

Loading…

Próximos Pases (próximas 24 horas)

TLE

ActualizadoSource: Space-Track

Época: Sep 14, 2026, 08:12 UTC

1 39818U 87020ES  26257.34215078  .00000272  00000-0  18645-2 0  9995
2 39818  73.6151 127.4490 0027513 262.3573  97.4352 12.51628774544430

Sigue COSMOS 1823 DEB en tiempo real con AllMySat

Download on the App Store